CAPE
85 591 808 788 1055 839 848 703 597 296 274 238 248 325 512 523 770 1146 1168 1302 1070 1524 1131 1240 1027 1229 1016 939 919 933 1406 1261 1118 1459 1529 1714 2016 2017 1590 1820 1609 2013 1897
191 595 748 1220 1345 479 542 536 313 538 623 604 584 618 273 376 496 901 1045 962 838 1162 1145 1185 1360 1493 858 1396 1176 816 1069 1125 819 1744 1659 1714 1821 1536 1804 1739 1539 1853 1922
74 514 974 1163 1310 751 238 232 294 929 938 694 806 906 967 759 889 682 872 1129 1010 721 967 1069 1189 1142 1118 1000 1172 1275 894 971 1284 766 666 416 572 1419 1415 1771 1481 1695 1790
83 494 1109 1429 1326 989 699 398 854 1094 861 914 877 909 956 958 1011 985 1040 1083 1019 619 425 338 298 294 348 548 639 676 788 1045 1251 1003 17 0 220 1135 1581 1752 1354 1335 1439
78 440 969 1039 912 672 630 984 948 1177 834 869 802 841 1065 1052 986 910 750 536 372 232 108 37 1 0 0 0 22 191 357 432 712 1049 169 13 20 681 1390 1702 1688 1621 1217
63 338 1163 986 795 502 944 799 965 1020 842 896 867 880 1094 735 406 278 142 73 19 0 0 7 30 121 332 538 326 18 62 199 352 351 394 4 0 109 1079 1633 1657 1653 1562
37 449 1174 1088 959 813 1123 1220 1188 1103 984 987 793 547 291 50 0 0 14 77 75 87 122 225 407 692 898 915 904 774 618 565 322 113 147 51 91 120 532 1566 1629 1584 1690
0 404 939 1084 828 1351 1235 1177 1050 635 339 274 186 88 0 0 0 0 10 49 165 365 618 880 1007 1122 1238 1272 1283 1270 1057 973 620 355 106 143 281 319 611 1363 1510 1661 1294
0 156 630 821 778 1245 804 496 302 147 116 77 50 33 65 12 35 93 208 327 581 887 987 1082 1247 1353 1344 1357 1374 1240 1287 1382 1386 552 397 410 439 463 724 958 1210 1748 1392
152 269 293 365 570 1071 1154 839 693 698 616 430 336 332 243 179 319 511 467 461 717 1119 1439 1248 1258 1470 1412 1263 1282 1149 1208 1511 1365 984 559 729 577 553 894 633 425 699 844
185 163 289 185 392 702 767 773 690 544 528 567 528 498 357 159 150 438 712 972 1151 1411 1622 1458 1383 1474 1292 1276 1190 1264 1347 1218 1097 1006 1175 1017 1059 637 459 497 260 334 340
36 17 85 120 82 399 490 390 385 241 387 276 212 46 102 74 65 266 607 1037 1368 946 1079 1007 917 1139 956 953 656 1091 1392 984 921 758 872 1159 1255 1051 794 585 477 378 375
168 17 0 0 3 3 9 11 172 106 53 22 0 0 0 56 131 297 521 1046 1591 1286 941 803 548 649 652 684 697 752 644 870 1105 884 952 1292 1279 1041 1008 760 682 695 596
26 0 0 0 0 0 0 0 0 1 0 0 0 0 2 148 712 1026 884 1036 1319 1309 1127 755 24 293 378 563 390 646 230 469 926 957 1000 1302 1359 1103 1025 996 842 647 566
0 0 0 0 0 0 0 0 18 0 0 1 0 1 74 238 764 1111 1000 1154 1188 1234 1164 810 567 73 133 220 599 1033 1054 1171 1283 1268 1333 1638 1350 971 924 1224 1271 1062 719
0 0 0 0 0 0 0 8 39 34 17 16 108 201 301 392 414 701 795 812 911 1332 1274 1116 992 880 669 912 738 693 1026 1071 1286 913 1007 1670 1450 856 629 1088 1145 1011 1315
0 0 0 0 0 0 0 38 198 131 123 89 190 379 426 413 724 1089 891 749 1068 1574 1554 1577 1161 938 652 463 440 175 647 924 871 239 430 327 542 938 649 946 958 908 935
2 1 1 25 10 120 134 284 445 284 142 98 325 384 421 587 678 1030 987 1131 1308 1443 964 1138 1246 538 135 180 243 96 397 541 555 234 333 375 842 774 1029 829 724 678 811
45 29 148 132 203 410 495 397 353 319 158 92 151 213 384 693 763 861 959 1073 1396 1234 1189 1043 702 629 514 493 409 201 94 205 286 655 679 657 622 376 619 657 664 677 772
43 104 218 232 259 294 309 472 431 380 303 89 164 216 481 911 1052 1134 1212 1570 1570 1313 983 567 358 241 585 893 905 413 0 17 173 326 561 173 141 517 450 540 846 749 519
70 119 247 301 243 298 371 402 463 257 75 15 199 222 389 868 1371 1144 1206 1244 1348 1225 929 687 274 61 329 624 218 161 33 0 0 0 42 80 120 263 933 714 728 665 474
65 156 254 365 399 415 537 532 466 311 30 129 174 352 638 1065 1318 1390 1180 1343 1080 887 602 252 186 674 588 280 521 74 68 9 0 0 21 3 45 95 577 972 827 553 329
84 153 261 435 578 655 784 682 474 316 252 275 341 383 629 1106 1428 1524 1303 1145 963 1036 848 503 21 235 549 522 508 261 47 30 0 0 0 0 1 79 270 208 623 742 386
138 161 217 382 617 694 743 671 490 204 72 223 457 494 596 1002 1685 1396 1529 1217 1329 1272 859 782 102 9 66 532 668 721 491 108 2 4 0 0 0 4 55 64 415 956 715
129 164 198 356 457 503 589 606 428 251 138 155 512 699 672 947 1316 1423 1218 1059 1244 1278 1284 913 361 505 24 692 792 609 486 39 0 77 65 0 5 47 24 144 245 1037 995
141 195 202 256 348 415 492 516 351 287 314 546 678 563 508 580 974 1101 799 879 1483 1574 1403 1231 616 726 367 672 789 719 513 446 292 255 283 256 204 257 351 421 549 668 618
CIN
-109 -14 -1 -11 -1 -5 -12 -22 -33 -65 -69 -72 -71 -69 -56 -59 -47 -27 -29 -24 -35 -11 -21 -14 -27 -15 -26 -34 -34 -28 -3 -15 -24 -13 -13 -3 0 0 -2 0 0 -1 0
-158 -25 -5 0 0 -22 -21 -31 -61 -58 -53 -54 -54 -49 -83 -72 -64 -44 -37 -45 -51 -30 -26 -17 -8 -2 -35 -7 -10 -22 -13 -17 -41 0 -1 0 0 -3 -1 0 0 -1 0
-230 -47 -1 -1 0 -15 -51 -61 -69 -24 -22 -42 -33 -28 -25 -36 -34 -56 -44 -24 -36 -59 -34 -26 -17 -18 -18 -24 -3 -1 -25 -22 -10 -48 -57 -82 -60 -3 -5 0 -2 0 -1
-217 -76 -3 0 -1 -10 -21 -49 -21 -2 -22 -24 -26 -20 -17 -16 -15 -26 -21 -16 -22 -60 -78 -86 -95 -86 -80 -51 -33 -34 -32 -19 -16 -35 -125 0 -84 -16 -1 0 -5 -7 -4
-234 -74 -19 -15 -21 -33 -31 -5 -3 0 -21 -22 -31 -26 -9 -10 -14 -20 -31 -52 -71 -94 -117 -145 -24 0 0 0 -32 -99 -73 -76 -60 -41 -82 -214 -204 -51 -8 0 0 0 -10
-284 -101 -1 -23 -44 -64 -15 -15 -2 -3 -25 -30 -35 -28 -9 -27 -53 -65 -95 -122 -139 -4 0 -163 -141 -111 -69 -44 -68 -115 -134 -90 -86 -104 -69 -35 0 -158 -31 0 0 0 -3
-350 -94 -4 -2 -17 -34 -15 -4 -4 -9 -25 -27 -42 -55 -68 -71 0 0 -57 -99 -100 -101 -101 -79 -61 -41 -20 -14 -15 -33 -40 -31 -80 -150 -124 -152 -116 -108 -70 0 0 0 -1
0 -134 -28 -9 -21 0 -1 -1 -9 -49 -87 -97 -101 -103 0 0 0 0 -61 -125 -97 -66 -46 -29 -24 -21 -12 -6 -2 -2 -22 -17 -40 -86 -143 -153 -100 -68 -53 -8 -1 0 -11
0 -250 -82 -48 -35 -1 -23 -58 -101 -129 -140 -144 -133 -131 -108 -105 -80 -101 -94 -80 -60 -39 -29 -24 -19 -18 -18 -15 -16 -25 -13 -9 -3 -51 -81 -103 -90 -75 -47 -36 -3 -6 -12
-304 -224 -210 -164 -92 -21 -9 -36 -56 -53 -61 -82 -82 -80 -94 -94 -79 -67 -73 -72 -59 -40 -24 -16 -16 -14 -16 -23 -27 -47 -28 -9 -19 -36 -68 -78 -71 -66 -38 -37 -34 -26 -16
-276 -308 -226 -265 -168 -78 -52 -52 -69 -86 -92 -79 -75 -73 -91 -122 -118 -80 -66 -45 -37 -29 -16 -20 -15 -14 -16 -23 -34 -38 -24 -38 -39 -48 -39 -47 -48 -57 -40 -34 -48 -36 -28
-448 -330 -384 -357 -364 -153 -114 -139 -140 -160 -120 -145 -144 -192 -167 -157 -147 -94 -75 -53 -26 -34 -34 -41 -30 -45 -55 -60 -78 -50 -39 -51 -57 -56 -54 -37 -40 -42 -34 -23 -35 -36 -30
-336 -495 0 0 -244 -60 -47 -412 -236 -253 -282 -311 -16 0 0 -208 -140 -99 -96 -61 -32 -32 -56 -70 -87 -88 -84 -91 -95 -89 -99 -90 -72 -67 -60 -40 -32 -24 -28 -24 -25 -23 -20
-430 0 0 0 0 0 0 -16 0 -52 0 0 0 0 -63 -144 -64 -52 -51 -48 -56 -37 -46 -87 -41 -118 -110 -91 -120 -105 -150 -121 -79 -71 -68 -55 -39 -38 -30 -19 -22 -30 -30
0 0 0 0 0 0 0 0 -359 0 0 -56 0 -111 -213 -105 -50 -40 -34 -42 -50 -49 -54 -64 -101 -213 -194 -163 -107 -84 -83 -79 -62 -65 -70 -51 -42 -54 -52 -30 -20 -19 -30
0 0 0 0 0 0 0 -426 -325 -324 -225 -267 -195 -131 -103 -78 -71 -41 -30 -28 -41 -43 -55 -56 -66 -80 -78 -105 -122 -115 -77 -94 -96 -93 -112 -69 -36 -73 -88 -49 -32 -26 -6
0 0 0 0 0 0 -26 -371 -261 -242 -209 -241 -148 -87 -66 -63 -41 -34 -32 -28 -31 -25 -40 -44 -65 -76 -95 -139 -125 -260 -120 -99 -155 -222 -133 -140 -104 -71 -106 -61 -55 -47 -29
-550 -80 -105 -504 -513 -398 -358 -257 -174 -204 -218 -226 -123 -93 -60 -50 -42 -47 -40 -28 -31 -57 -48 -38 -58 -86 -172 -189 -161 -235 -178 -148 -179 -219 -193 -150 -109 -78 -45 -62 -84 -94 -43
-395 -431 -381 -425 -369 -256 -183 -181 -176 -161 -209 -216 -195 -157 -90 -52 -47 -51 -47 -38 -33 -36 -42 -51 -77 -116 -91 -114 -125 -196 -265 -233 -230 -152 -127 -152 -156 -160 -79 -60 -64 -100 -76
-464 -387 -289 -277 -292 -256 -223 -140 -143 -156 -155 -236 -185 -154 -65 -34 -38 -33 -42 -45 -49 -50 -59 -79 -90 -116 -96 -77 -89 -172 0 -76 -277 -188 -149 -206 -212 -175 -144 -85 -57 -66 -98
-506 -409 -336 -280 -269 -257 -211 -179 -163 -196 -286 -326 -192 -160 -92 -30 -52 -19 -44 -47 -59 -51 -61 -87 -91 -140 -130 -123 -132 -198 -145 0 -2 0 -298 -257 -232 -201 -115 -97 -91 -100 -92
-474 -444 -389 -318 -274 -229 -177 -167 -181 -204 -352 -251 -198 -117 -51 -35 -35 -32 -39 -38 -65 -71 -74 -129 -122 -56 -38 -121 -59 -192 -196 -101 0 0 -346 -66 -260 -271 -181 -98 -110 -132 -168
-447 -432 -433 -347 -285 -254 -203 -184 -209 -246 -249 -203 -155 -103 -54 -39 -38 -38 -53 -51 -45 -58 -50 -87 -104 -89 -31 -76 -118 -71 -103 -160 0 0 0 -102 -141 -325 -262 -225 -136 -130 -158
-469 -448 -408 -372 -317 -304 -273 -230 -234 -286 -317 -226 -123 -73 -45 -41 -36 -43 -36 -54 -41 -51 -58 -60 -151 -27 -49 -26 -68 -81 -130 -160 -156 -126 0 0 0 -160 -337 -256 -157 -110 -128
-479 -447 -462 -406 -359 -347 -323 -304 -303 -304 -306 -241 -121 -65 -66 -50 -34 -44 -40 -33 -44 -37 -33 -45 -90 -85 -8 -48 -48 -56 -91 -234 0 -153 -112 0 -209 -250 -311 -237 -221 -123 -109
-488 -487 -494 -459 -408 -399 -372 -351 -353 -316 -262 -167 -104 -105 -84 -78 -42 -45 -36 -42 -41 -35 -38 -40 -75 -87 -92 -70 -63 -61 -56 -37 -94 -118 -90 -103 -107 -149 -180 -191 -174 -167 -179
Wind_Speed
35 34 33 31 30 29 26 27 27 24 24 24 24 25 25 26 26 25 25 23 23 24 23 23 22 20 19 18 19 18 18 18 18 18 17 18 17 17 18 16 12 12 13
37 34 33 31 30 29 28 29 27 25 24 25 26 26 26 27 27 26 25 24 23 23 23 22 21 20 20 19 19 19 18 18 17 16 19 19 18 19 17 16 15 12 13
35 35 34 32 31 31 30 30 29 28 27 26 26 26 27 26 26 25 25 24 24 23 22 21 21 20 20 19 19 19 19 18 18 17 16 18 19 20 18 19 17 15 15
34 35 34 33 31 30 29 29 28 27 27 27 27 27 26 26 25 24 23 23 23 22 21 21 20 19 18 18 18 18 19 18 19 19 19 17 19 19 20 20 18 16 15
33 34 33 32 31 29 29 28 27 27 27 26 26 26 26 25 24 23 22 21 21 20 20 19 19 18 18 18 18 18 18 18 18 18 18 18 20 20 19 20 19 18 17
32 32 32 31 30 29 29 27 27 27 26 26 25 25 24 23 22 21 21 20 20 19 19 19 18 18 17 17 17 18 18 18 17 17 17 19 20 20 20 19 18 18 18
33 32 31 31 29 29 28 27 27 26 26 25 24 23 22 21 20 20 20 19 19 18 18 18 18 17 17 17 18 18 18 18 18 18 18 19 18 18 19 19 19 19 18
33 33 31 30 28 28 27 26 26 25 25 24 23 22 21 20 19 19 19 19 18 18 17 17 17 17 17 17 18 18 18 18 18 19 18 18 18 19 19 19 20 20 18
31 30 29 27 27 27 26 25 25 24 24 23 22 21 20 20 19 19 19 18 18 17 17 17 17 17 17 17 17 18 18 19 19 19 19 18 18 19 19 19 20 19 18
28 26 26 26 26 26 26 25 24 23 23 22 21 21 20 20 19 19 19 18 17 16 16 16 16 17 17 18 18 18 18 18 19 20 19 18 17 20 19 19 19 19 18
26 26 26 26 26 25 25 24 23 23 23 22 21 21 20 19 18 18 18 17 17 17 16 16 17 18 17 17 18 18 18 18 19 18 18 18 17 18 19 18 18 19 18
25 26 26 26 25 25 24 24 23 23 22 21 21 21 19 19 18 17 17 16 15 16 15 16 17 19 19 19 19 19 19 19 19 18 18 16 16 17 18 18 18 19 19
25 23 25 25 25 24 23 24 23 23 22 21 21 21 18 18 18 17 16 16 15 15 14 15 16 18 18 18 19 19 20 20 20 19 18 16 15 16 18 17 17 18 18
23 24 24 24 24 23 24 22 22 22 21 20 20 19 18 17 18 17 16 15 14 14 15 14 15 16 19 18 20 19 20 20 20 19 19 17 16 16 17 16 17 17 17
22 22 24 23 22 22 22 21 20 21 19 20 19 18 17 17 16 14 15 16 13 13 15 14 14 14 13 13 21 22 21 22 19 19 20 18 17 17 16 16 16 15 16
23 22 22 22 21 20 20 19 18 17 18 18 18 18 18 18 16 13 13 15 14 11 11 10 13 13 12 16 17 18 23 23 7 16 18 13 17 18 17 16 16 16 17
23 22 21 23 21 18 19 18 16 16 13 16 17 18 17 16 15 13 12 14 16 13 8 11 8 10 14 12 14 18 7 7 8 8 12 19 16 19 18 18 17 17 17
18 18 20 20 21 18 17 14 10 8 3 6 10 14 16 14 14 12 10 13 14 21 12 7 8 11 12 11 10 5 10 7 9 6 7 9 14 13 19 19 18 17 17
20 17 15 17 18 16 13 9 6 2 2 3 4 5 15 12 13 12 9 12 5 12 11 11 9 10 9 10 11 10 8 8 6 6 4 11 10 8 16 20 20 17 17
20 19 18 15 14 15 11 6 2 3 3 4 12 6 6 9 11 10 7 6 4 9 8 12 13 14 11 9 10 8 8 11 8 4 4 9 12 17 20 15 21 20 18
18 18 17 16 16 12 7 6 3 6 4 8 16 15 6 7 7 12 5 4 6 9 9 10 11 9 9 6 11 13 13 14 7 4 5 6 29 23 10 10 23 22 22
17 17 17 16 15 14 9 6 2 4 8 10 12 9 4 2 7 9 4 4 4 5 9 9 8 11 10 5 10 14 13 13 3 6 9 14 6 22 24 21 25 24 23
15 16 16 16 15 14 11 5 3 4 7 2 16 16 6 2 7 8 5 2 2 5 5 6 7 9 10 6 5 9 12 8 11 6 5 14 8 12 22 26 26 26 25
16 15 15 15 15 13 13 9 8 5 5 7 3 13 26 3 6 8 8 4 4 3 7 5 11 11 9 10 11 9 14 13 10 17 15 8 4 26 28 28 26 29 21
13 13 14 14 15 13 13 13 11 6 5 4 6 14 18 9 4 6 7 7 3 9 10 6 9 8 10 13 7 10 11 13 15 18 17 13 19 19 23 27 29 19 4
10 11 12 13 13 14 14 13 12 9 6 3 9 11 17 16 6 7 5 4 6 7 8 5 7 11 12 13 14 12 11 13 14 12 11 14 13 14 14 13 16 13 12
Wind_Direction
146 142 136 128 125 118 105 105 101 89 88 84 86 90 94 100 100 96 101 98 101 113 116 124 125 105 93 107 126 132 118 118 113 107 103 103 96 87 91 81 40 57 64
137 137 134 133 125 121 113 120 109 97 96 105 112 107 111 118 115 115 121 118 114 122 119 130 127 118 120 112 116 147 143 139 122 100 130 121 114 114 103 92 79 58 74
132 137 138 132 131 128 126 129 125 122 120 117 113 116 116 122 124 124 128 131 132 131 134 145 136 140 144 140 128 128 121 123 125 107 99 120 128 135 125 123 103 89 89
129 137 138 135 131 130 131 131 128 123 122 119 116 117 119 122 127 128 128 135 139 139 140 148 148 145 162 158 162 161 134 136 150 139 169 170 148 136 136 120 103 93 97
128 135 136 134 134 130 130 129 131 128 125 122 123 126 126 125 130 137 141 147 148 157 165 165 167 161 160 157 163 175 160 160 162 164 189 199 152 154 136 135 124 114 109
129 133 137 133 132 133 133 128 131 132 129 128 130 133 135 137 143 148 158 162 166 170 176 178 177 172 158 157 166 180 182 173 168 187 186 161 150 159 164 143 135 134 131
134 136 136 141 136 135 133 133 133 134 133 136 139 140 141 146 151 158 169 173 172 170 167 170 172 165 162 171 176 185 183 185 184 187 184 182 178 170 171 163 157 152 144
135 141 142 140 139 140 134 134 136 138 139 141 142 144 146 153 160 164 170 169 172 170 165 168 165 171 169 172 181 185 191 185 190 189 190 196 201 192 184 185 170 165 155
135 136 138 138 139 142 141 140 140 143 143 146 148 151 153 157 164 169 170 168 169 173 169 170 174 174 173 174 182 186 189 192 193 191 190 198 205 194 192 186 175 167 160
136 135 136 137 142 145 146 144 144 146 148 151 154 156 157 162 165 170 174 174 175 175 175 176 173 177 174 176 179 184 188 191 191 194 194 198 201 193 186 177 176 175 168
139 142 144 144 146 145 147 149 150 153 156 157 157 160 161 165 165 170 177 181 185 187 177 179 183 191 189 181 180 182 182 188 189 190 195 196 200 187 187 179 176 178 176
141 148 150 150 148 148 150 155 156 159 162 161 161 163 166 169 171 172 176 183 181 186 172 178 186 190 192 188 187 187 179 179 183 188 194 196 196 185 185 181 179 178 180
148 143 151 154 152 150 154 157 159 163 164 165 167 168 166 173 179 182 182 185 183 174 165 165 154 168 168 183 200 203 201 195 188 192 193 197 189 177 175 179 180 179 181
146 151 151 152 153 155 157 155 159 161 161 163 165 170 170 172 181 184 183 184 171 156 170 159 156 153 192 183 210 197 196 196 201 198 198 197 177 171 173 177 178 176 180
151 153 156 154 154 155 156 159 157 162 161 167 164 166 164 169 173 167 172 189 156 147 165 171 164 160 152 161 243 245 230 219 198 203 207 194 162 167 173 175 170 167 172
158 157 157 159 158 155 156 157 158 157 168 168 167 170 168 170 172 157 160 175 178 149 149 134 175 163 144 329 310 301 239 238 137 276 229 244 157 163 167 168 164 163 169
162 162 160 164 164 161 164 161 156 164 150 158 167 171 168 167 170 165 154 178 185 174 119 168 98 58 359 14 14 295 69 98 10 326 312 266 160 181 164 168 159 162 171
161 158 163 165 165 165 167 160 149 136 80 94 139 158 171 170 171 165 161 180 185 255 325 50 67 43 33 41 58 81 118 63 14 18 332 158 157 147 183 175 166 154 171
167 161 159 164 165 162 155 155 158 165 174 144 0 129 184 175 173 168 154 166 112 356 11 13 17 20 42 71 63 84 53 95 63 41 26 244 151 121 167 189 185 161 159
166 165 165 164 167 167 165 163 174 255 244 183 175 163 160 170 178 172 149 139 75 13 19 352 348 348 359 58 39 64 60 23 37 56 99 302 292 278 183 166 207 198 174
163 164 164 165 169 170 173 177 186 182 197 184 188 188 172 171 170 172 142 58 22 7 1 13 4 3 350 46 16 8 354 350 19 105 98 310 232 265 304 143 210 214 215
164 165 166 169 168 172 176 180 280 172 174 176 181 181 164 101 146 162 150 133 53 18 9 5 23 351 12 75 1 352 9 7 63 132 162 175 299 272 262 276 210 204 210
166 169 169 169 169 169 170 169 309 314 316 258 184 295 312 134 157 167 158 113 83 11 14 32 29 10 349 23 38 12 12 56 20 33 144 179 301 297 269 259 241 210 206
170 170 169 167 166 166 165 167 171 176 180 175 182 301 279 189 180 174 177 149 143 33 357 28 348 346 1 351 344 354 340 348 11 335 343 322 173 266 255 258 260 234 184
170 167 169 167 168 165 166 170 172 174 177 184 295 302 301 315 197 181 175 177 31 338 338 0 342 351 339 328 354 348 347 343 336 314 326 324 286 281 275 264 252 279 325
176 174 171 172 172 169 169 169 173 180 179 215 294 300 301 308 305 203 204 184 346 336 337 339 347 328 331 324 323 330 338 336 336 342 333 316 311 300 299 293 284 289 291